CW5988 Weather Reports


time (UTC)temp
F
wind
direction
speed
knots
gust
knots
rain 1hr
in
rain 24hr
in
rain mn
in
humidity
%
barometer
mb
20260504184423 61 230 4.3 12.2 0.00 0.00 0.00 73 1015.8
20260504183949 61 276 5.2 11.3 0.00 0.00 0.00 73 1015.8
20260504183437 61 225 7.0 12.2 0.00 0.00 0.00 73 1015.7
20260504182924 60 264 8.7 12.2 0.00 0.00 0.00 72 1015.7
20260504182424 61 275 6.1 11.3 0.00 0.00 0.00 73 1015.8
20260504181929 61 230 4.3 14.8 0.00 0.00 0.00 74 1015.6
20260504181432 61 261 9.6 14.8 0.00 0.00 0.00 73 1015.7
20260504180921 61 206 5.2 13.0 0.00 0.00 0.00 74 1015.8
20260504180427 60 244 3.5 13.0 0.00 0.00 0.00 73 1015.8
20260504175931 61 256 7.0 12.2 0.00 0.00 0.00 73 1015.6
20260504175419 60 208 6.1 9.6 0.00 0.00 0.00 73 1015.6
20260504174921 60 284 5.2 10.4 0.00 0.00 0.00 74 1015.5
20260504174430 60 251 5.2 13.0 0.00 0.00 0.00 74 1015.5
20260504173916 60 273 7.0 13.0 0.00 0.00 0.00 72 1015.4
20260504173420 60 268 4.3 9.6 0.00 0.00 0.00 73 1015.4
20260504172945 60 288 5.2 11.3 0.00 0.00 0.00 73 1015.4
20260504172431 61 282 7.0 11.3 0.00 0.00 0.00 71 1015.3
20260504171917 61 273 5.2 11.3 0.00 0.00 0.00 72 1015.3
20260504171417 61 185 4.3 7.8 0.00 0.00 0.00 72 1015.3
20260504170942 60 272 3.5 9.6 0.00 0.00 0.00 72 1015.2
20260504170429 60 268 3.5 12.2 0.00 0.00 0.00 72 1015.0
20260504160434 58 249 3.5 7.8 0.00 0.00 0.00 77 1015.1
20260504150927 59 346 1.7 2.6 0.00 0.00 0.00 80 1014.9
20260504150431 58 160 0.9 3.5 0.00 0.00 0.00 81 1014.9
20260504140918 55 209 1.7 3.5 0.00 0.00 0.00 85 1014.8
20260504140426 55 227 0.9 3.5 0.00 0.00 0.00 85 1014.8
20260504130424 54 194 2.6 3.5 0.00 0.00 0.00 85 1014.3
20260504110423 55 244 1.7 5.2 0.00 0.00 0.00 85 1014.2
20260504100429 55 196 1.7 5.2 0.00 0.00 0.00 85 1014.2
20260504081921 55 191 2.6 7.8 0.00 0.00 0.00 84 1014.6
20260504081424 55 230 3.5 7.8 0.00 0.00 0.00 84 1014.4
20260504080930 55 249 2.6 8.7 0.00 0.00 0.00 84 1014.5
20260504080436 55 247 3.5 8.7 0.00 0.00 0.00 84 1014.6
20260504050438 56 277 5.2 12.2 0.00 0.00 0.00 83 1014.3
20260504045951 56 249 6.1 13.0 0.00 0.00 0.00 83 1014.1
20260504045436 56 210 6.1 13.0 0.00 0.00 0.00 83 1014.1
20260504044938 56 273 6.1 11.3 0.00 0.00 0.00 83 1014.0
20260504044425 56 236 7.0 11.3 0.00 0.00 0.00 83 1014.0
20260504043933 56 270 6.1 11.3 0.00 0.00 0.00 83 1014.0
20260504043421 56 240 4.3 13.0 0.00 0.00 0.00 83 1013.9
20260504042956 56 255 7.0 13.0 0.00 0.00 0.00 83 1013.9
20260504042451 56 237 5.2 12.2 0.00 0.00 0.00 83 1013.7
20260504041935 56 225 5.2 12.2 0.00 0.00 0.00 83 1013.8
20260504041419 56 263 6.1 13.0 0.00 0.00 0.00 83 1013.7
20260504040925 56 292 5.2 13.0 0.00 0.00 0.00 82 1013.6
20260504040434 56 306 6.1 13.0 0.00 0.00 0.00 82 1013.6
20260504035919 56 263 7.8 14.8 0.00 0.00 0.00 82 1013.5
20260504035424 56 233 7.0 13.0 0.00 0.00 0.00 81 1013.4
20260504034932 56 240 6.1 12.2 0.00 0.00 0.00 81 1013.3
20260504034419 56 247 5.2 10.4 0.00 0.00 0.00 81 1013.2
20260504033926 56 245 6.1 11.3 0.00 0.00 0.00 81 1013.1
20260504033431 56 261 5.2 13.0 0.00 0.00 0.00 81 1013.1
20260504032937 56 226 6.1 13.0 0.00 0.00 0.00 80 1013.1
20260504032425 56 216 6.1 13.9 0.00 0.00 0.00 80 1012.9
20260504031932 56 251 6.1 13.9 0.00 0.00 0.00 79 1012.9
20260504031418 56 233 7.0 13.9 0.00 0.00 0.00 79 1013.0
20260504030946 56 222 7.0 13.9 0.00 0.00 0.00 79 1013.0
20260504030431 56 237 7.8 13.0 0.00 0.00 0.00 79 1013.0
20260504025932 57 261 7.0 14.8 0.00 0.00 0.00 79 1013.0
20260504025441 57 260 5.2 14.8 0.00 0.00 0.00 78 1013.0
20260504024946 57 228 6.1 16.5 0.00 0.00 0.00 78 1013.0
20260504024431 57 228 8.7 16.5 0.00 0.00 0.00 77 1012.9
20260504023919 57 261 7.0 13.0 0.00 0.00 0.00 77 1012.8
20260504023426 57 224 7.0 13.9 0.00 0.00 0.00 77 1012.8
20260504022929 57 222 7.0 13.9 0.00 0.00 0.00 78 1012.9
20260504022435 57 263 7.8 14.8 0.00 0.00 0.00 77 1012.9
20260504021922 58 284 6.1 11.3 0.00 0.00 0.00 78 1012.8
20260504021431 58 310 5.2 13.0 0.00 0.00 0.00 78 1012.8
20260504020918 58 260 6.1 12.2 0.00 0.00 0.00 77 1012.7
20260504020455 58 234 6.1 13.9 0.00 0.00 0.00 77 1012.7
20260504015941 58 235 6.1 13.9 0.00 0.00 0.00 77 1012.8
20260504015424 58 251 6.1 12.2 0.00 0.00 0.00 77 1012.8
20260504014932 59 259 5.2 12.2 0.00 0.00 0.00 77 1012.8
20260504014438 59 275 6.1 13.9 0.00 0.00 0.00 77 1012.8
20260504013925 58 217 6.1 13.9 0.00 0.00 0.00 76 1012.9
20260504013432 58 238 7.0 15.6 0.00 0.00 0.00 76 1013.1
20260504012918 59 275 7.8 15.6 0.00 0.00 0.00 75 1013.1
20260504012445 60 184 7.8 15.6 0.00 0.00 0.00 75 1013.1
20260504011947 60 273 7.0 14.8 0.00 0.00 0.00 76 1012.9
20260504011431 59 205 6.1 14.8 0.00 0.00 0.00 76 1013.0
20260504010920 59 223 7.0 14.8 0.00 0.00 0.00 77 1013.0
20260504010429 58 261 6.1 16.5 0.00 0.00 0.00 77 1013.0
20260504005934 58 221 8.7 16.5 0.00 0.00 0.00 76 1013.1
20260504005422 59 283 8.7 16.5 0.00 0.00 0.00 77 1013.1
20260504004929 59 242 7.0 16.5 0.00 0.00 0.00 76 1013.1
20260504004432 59 244 6.1 15.6 0.00 0.00 0.00 76 1013.0
20260504003919 59 262 7.0 14.8 0.00 0.00 0.00 76 1013.1
20260504003419 59 252 7.0 16.5 0.00 0.00 0.00 76 1013.1
20260504002945 59 250 7.8 16.5 0.00 0.00 0.00 75 1013.1
20260504002430 60 196 4.3 11.3 0.00 0.00 0.00 75 1013.1
20260504001936 60 270 5.2 12.2 0.00 0.00 0.00 75 1013.0
20260504001452 60 208 7.0 13.0 0.00 0.00 0.00 74 1012.9
20260504000921 60 222 7.0 13.0 0.00 0.00 0.00 73 1012.9
20260504000431 60 236 4.3 13.0 0.00 0.00 0.00 74 1012.9
20260503235934 60 235 7.8 13.9 0.00 0.00 0.00 74 1012.9
20260503235419 59 260 6.1 14.8 0.00 0.00 0.00 73 1012.8
20260503234925 59 268 7.8 14.8 0.00 0.00 0.00 73 1012.8
20260503234433 60 256 7.0 13.9 0.00 0.00 0.00 73 1012.8
20260503233940 60 278 7.0 14.8 0.00 0.00 0.00 74 1012.8
20260503233445 60 258 7.8 15.6 0.00 0.00 0.00 74 1012.8
20260503232931 59 290 4.3 15.6 0.00 0.00 0.00 75 1012.9
20260503232418 59 256 7.8 13.9 0.00 0.00 0.00 75 1012.9
20260503231919 59 256 8.7 13.9 0.00 0.00 0.00 76 1013.0
20260503231454 59 226 5.2 13.9 0.00 0.00 0.00 76 1013.0
20260503230917 60 205 5.2 13.9 0.00 0.00 0.00 76 1013.0
20260503230423 60 287 7.8 13.9 0.00 0.00 0.00 75 1012.9
20260503225924 60 316 7.0 13.0 0.00 0.00 0.00 75 1013.0
20260503225432 60 242 6.1 12.2 0.00 0.00 0.00 74 1012.9
20260503224918 60 246 4.3 13.9 0.00 0.00 0.00 74 1012.9
20260503224420 60 227 6.1 14.8 0.00 0.00 0.00 74 1013.1
20260503223956 59 239 4.3 14.8 0.00 0.00 0.00 74 1013.1
20260503223422 60 282 7.0 13.0 0.00 0.00 0.00 74 1013.1
20260503222929 60 268 5.2 14.8 0.00 0.00 0.00 74 1013.1
20260503222416 60 244 7.0 14.8 0.00 0.00 0.00 73 1013.1
20260503221925 60 226 6.1 14.8 0.00 0.00 0.00 74 1013.1
20260503221429 60 208 6.1 14.8 0.00 0.00 0.00 73 1013.2
20260503220931 60 203 7.8 14.8 0.00 0.00 0.00 73 1013.1
20260503220418 60 201 7.8 13.0 0.00 0.00 0.00 72 1013.2
20260503215940 60 250 6.1 15.6 0.00 0.00 0.00 72 1013.1
20260503215428 60 273 8.7 15.6 0.00 0.00 0.00 72 1013.0
20260503214936 61 190 7.0 13.9 0.00 0.00 0.00 72 1013.0
20260503214425 61 213 5.2 16.5 0.00 0.00 0.00 72 1013.0
20260503213929 60 199 7.8 16.5 0.00 0.00 0.00 71 1013.0
20260503213432 61 219 8.7 16.5 0.00 0.00 0.00 71 1013.0
20260503212917 61 282 7.8 16.5 0.00 0.00 0.00 71 1013.0
20260503212441 61 221 6.1 13.9 0.00 0.00 0.00 70 1013.1
20260503211924 61 256 7.0 13.0 0.00 0.00 0.00 70 1013.1
20260503211430 61 244 8.7 16.5 0.00 0.00 0.00 70 1013.0
20260503210937 62 202 9.6 16.5 0.00 0.00 0.00 68 1013.0
20260503210438 62 236 4.3 13.0 0.00 0.00 0.00 70 1012.9
20260503205952 62 284 6.1 11.3 0.00 0.00 0.00 70 1012.9
20260503205446 62 244 6.1 13.0 0.00 0.00 0.00 71 1012.8
20260503204931 62 227 5.2 13.0 0.00 0.00 0.00 71 1012.9
20260503204418 62 263 6.1 11.3 0.00 0.00 0.00 71 1012.9
20260503203924 61 212 5.2 13.0 0.00 0.00 0.00 72 1012.8
20260503203433 61 259 7.0 13.0 0.00 0.00 0.00 72 1012.9
20260503202918 61 212 4.3 11.3 0.00 0.00 0.00 73 1013.0
20260503202420 60 249 7.0 13.0 0.00 0.00 0.00 72 1013.0
20260503201926 61 228 6.1 11.3 0.00 0.00 0.00 73 1013.0
20260503201434 60 239 4.3 13.9 0.00 0.00 0.00 73 1013.1
20260503200922 60 244 5.2 13.9 0.00 0.00 0.00 73 1013.2
20260503200428 60 246 6.1 11.3 0.00 0.00 0.00 73 1013.1
20260503195933 61 205 5.2 11.3 0.00 0.00 0.00 72 1013.2
20260503195419 60 285 3.5 11.3 0.00 0.00 0.00 73 1013.2
20260503194942 60 302 4.3 11.3 0.00 0.00 0.00 73 1013.2
20260503194455 60 251 4.3 12.2 0.00 0.00 0.00 74 1013.3
20260503193922 60 294 6.1 12.2 0.00 0.00 0.00 74 1013.4
20260503193429 60 224 6.1 14.8 0.00 0.00 0.00 73 1013.3
20260503192934 60 284 7.8 14.8 0.00 0.00 0.00 72 1013.3
20260503192421 60 264 6.1 13.0 0.00 0.00 0.00 72 1013.4
20260503191927 61 261 5.2 13.0 0.00 0.00 0.00 71 1013.3
20260503191431 61 226 5.2 13.0 0.00 0.00 0.00 71 1013.3
20260503190937 61 280 3.5 16.5 0.00 0.00 0.00 72 1013.3
20260503190451 61 235 7.0 13.0 0.00 0.00 0.00 72 1013.4
20260503185926 61 171 6.1 13.0 0.00 0.00 0.00 72 1013.4
20260503185433 61 194 6.1 14.8 0.00 0.00 0.00 72 1013.4
20260503184916 61 224 7.0 14.8 0.00 0.00 0.00 72 1013.5